CZ-6A DEB, 54473

Orbit data source: Space-Track

CZ-6A DEB, 54473 is space debris in SSO originally from a launch on Fri, 11 Nov 2022 UTC launched from the Taiyaun Space Center, China (TSC). Debris objects in space refer to the collection of defunct objects orbiting the Earth. Examples of debris include non-operational satellites, rocket bodies, and fragments generated from explosions, collisions, or faulty payload assembly.

Loading next visibility...
Identifier
54473, 2022-151GZ
Orbit
SSO
Country
Flag of CNCN / PRC
Related business
Manufacturer
SAST
Mission
Spacecraft
Bus & Motor
Unknown
Mass
Unknown
Launch date (UTC)
2022-11-11 (4 years ago)
Launch vehicle
Unknown
Launch site
Taiyaun Space Center, China (TSC)
Object type
Payload
Rocket body
Debris
Shape & HBR
Unknown shape, 0.7 m
Radar Cross Section
Medium (>0.1 m² and <1 m²)

Expand to show TLE details & history
Last TLE update: 16 hours ago

TLE from 16 hours ago
0 CZ-6A DEB
1 54473U 22151GZ  26209.04170192  .00000243  00000-0  13879-3 0  9997
2 54473  98.8381 235.1311 0033364  92.8744 267.6251 14.18307138191580
Epoch: 2026-07-28T01:00Z
TLE epoch observation values (Epoch: 2026-07-28T01:00:03.045Z)
Latitude
0.00002°
Longitude
-85.59821°
Altitude
835.069 km
Speed
7.435 km/s
True Right ascension
15h 40m 31s
True Declination
0° 00' 00"
Sunlit
Object was in daylight at epoch
Visualization orbit readout
Latitude
Unknown
Longitude
Unknown
Altitude
Unknown
Speed
Unknown
Apparent Right ascension
Unknown
Apparent Declination
Unknown
Sunlit
N/A
Visualization observer readout
Local Sidereal Time
06:26:36
Azimuth
Unknown
Elevation
Unknown
Doppler factor
Unknown
Orbital elements
Apogee altitude
852.294 km
Perigee altitude
804.207 km
Semi-major axis
7,206.388 km
Eccentricity
0.00334
Inclination
98.8381°
RAAN
235.1311°
Arg. of periapsis
92.8744°
True anomaly
267.24317°
Mean anomaly
267.6251°
Eccentric anomaly
267.43413°
Mean motion
3.54786 °/min
Orbital period
101.47 mins
BSTAR
0.00013879
Loading maneuver chart data...
Computing Atmospheric mass density...
Loading historical data...
Loading historical data...
Loading historical data...
Loading historical data...
Loading historical data...
Loading historical data...
Loading historical data...

Documentation

Showing up to 5 results
|